timestamp,surface_pressure_avg,surface_temp_avg,battery_voltage,lat,long
2021-01-06 00:09:01+00:00,223.2447,3.8,12.65,47.84626,-54.09684
2021-01-06 00:19:01+00:00,223.1497,3.72,12.65,47.84626,-54.09684
2021-01-06 00:29:01+00:00,225.9081,3.78,12.65,47.84626,-54.09684
2021-01-06 00:39:01+00:00,228.3614,3.99,12.65,47.84626,-54.09684
2021-01-06 00:49:01+00:00,228.4114,4.05,12.65,47.84626,-54.09684
2021-01-06 00:59:01+00:00,228.4348,4.0,12.65,47.84626,-54.09684
2021-01-06 01:09:01+00:00,232.1598,4.0,12.65,47.84626,-54.09684
2021-01-06 01:19:01+00:00,235.0148,4.0,12.65,47.84626,-54.09684
2021-01-06 01:29:01+00:00,236.4931,3.94,12.65,47.84626,-54.09684
2021-01-06 01:39:01+00:00,242.9714,3.8,12.65,47.84626,-54.09684
2021-01-06 01:49:01+00:00,250.4798,3.79,12.65,47.84626,-54.09684
2021-01-06 01:59:01+00:00,257.3631,3.89,12.65,47.84626,-54.09684
2021-01-06 02:09:01+00:00,263.6797,3.92,12.65,47.84626,-54.09684
2021-01-06 02:19:01+00:00,273.6097,3.8,12.65,47.84626,-54.09684
2021-01-06 02:29:01+00:00,281.1097,3.93,12.65,47.84626,-54.09684
2021-01-06 02:39:01+00:00,288.808,4.17,12.65,47.84626,-54.09684
2021-01-06 02:49:01+00:00,296.0363,4.05,12.65,47.84626,-54.09684
2021-01-06 02:59:01+00:00,304.0096,4.0,12.65,47.84626,-54.09684
2021-01-06 03:09:01+00:00,308.3196,4.0,12.65,47.84626,-54.09684
2021-01-06 03:19:01+00:00,313.0946,4.07,12.57,47.84626,-54.09684
2021-01-06 03:29:01+00:00,316.743,4.1,12.57,47.84626,-54.09684
2021-01-06 03:39:01+00:00,321.173,4.1,12.57,47.84626,-54.09684
2021-01-06 03:49:01+00:00,323.2363,4.1,12.57,47.84626,-54.09684
2021-01-06 03:59:01+00:00,326.8396,4.13,12.57,47.84626,-54.09684
2021-01-06 04:09:01+00:00,331.8146,4.15,12.57,47.84626,-54.09684
2021-01-06 04:19:01+00:00,331.8347,4.17,12.57,47.84626,-54.09684
2021-01-06 04:29:01+00:00,332.2847,4.17,12.57,47.84626,-54.09684
2021-01-06 04:39:01+00:00,335.4662,4.17,12.57,47.84626,-54.09684
2021-01-06 04:49:01+00:00,336.3513,4.17,12.57,47.84626,-54.09684
2021-01-06 04:59:01+00:00,332.7714,4.17,12.57,47.84626,-54.09684
2021-01-06 05:09:01+00:00,332.1496,4.16,12.57,47.84626,-54.09684
2021-01-06 05:19:01+00:00,335.1763,4.13,12.57,47.84626,-54.09684
2021-01-06 05:29:01+00:00,335.0312,4.1,12.57,47.84626,-54.09684
2021-01-06 05:39:01+00:00,332.6281,4.0,12.57,47.84626,-54.09684
2021-01-06 05:49:01+00:00,331.05300000000005,4.01,12.57,47.84626,-54.09684
2021-01-06 05:59:01+00:00,330.0780000000001,4.1,12.57,47.84626,-54.09684
2021-01-06 06:09:01+00:00,329.5746,4.1,12.57,47.84626,-54.09684
2021-01-06 06:19:01+00:00,327.0164,4.1,12.57,47.84626,-54.09684
2021-01-06 06:29:01+00:00,324.4647,4.1,12.57,47.84626,-54.09684
2021-01-06 06:39:01+00:00,321.7679,4.1,12.57,47.84626,-54.09684
2021-01-06 06:49:01+00:00,317.5013,4.1,12.57,47.84626,-54.09684
2021-01-06 06:59:01+00:00,310.8364,4.1,12.57,47.84626,-54.09684
2021-01-06 07:09:01+00:00,305.4846,4.1,12.57,47.84626,-54.09684
2021-01-06 07:19:01+00:00,300.1646,4.09,12.57,47.84626,-54.09684
2021-01-06 07:29:01+00:00,294.753,4.1,12.57,47.84626,-54.09684
2021-01-06 07:39:01+00:00,286.8164,4.1,12.57,47.84626,-54.09684
2021-01-06 07:49:01+00:00,278.6364,4.1,12.57,47.84626,-54.09684
2021-01-06 07:59:01+00:00,270.0781,4.0,12.57,47.84626,-54.09684
2021-01-06 08:09:01+00:00,260.3764,4.0,12.57,47.84626,-54.09684
2021-01-06 08:19:01+00:00,251.9497,4.1,12.57,47.84626,-54.09684
2021-01-06 08:29:01+00:00,246.0847,4.1,12.57,47.84626,-54.09684
2021-01-06 08:39:01+00:00,237.6131,3.9,12.57,47.84626,-54.09684
2021-01-06 08:49:01+00:00,227.3364,3.99,12.57,47.84626,-54.09684
2021-01-06 08:59:01+00:00,221.7014,4.0,12.57,47.84626,-54.09684
2021-01-06 09:09:01+00:00,219.6848,4.0,12.57,47.84626,-54.09684
2021-01-06 09:19:01+00:00,214.2164,4.0,12.57,47.84626,-54.09684
2021-01-06 09:29:01+00:00,210.063,4.0,12.57,47.84626,-54.09684
2021-01-06 09:39:01+00:00,209.1214,4.0,12.57,47.84626,-54.09684
2021-01-06 09:49:01+00:00,208.1198,4.0,12.57,47.84626,-54.09684
2021-01-06 09:59:01+00:00,206.6048,4.0,12.57,47.84626,-54.09684
2021-01-06 10:09:01+00:00,205.1748,4.0,12.57,47.84626,-54.09684
2021-01-06 10:19:01+00:00,207.6765,4.0,12.57,47.84626,-54.09684
2021-01-06 10:29:01+00:00,210.2781,4.0,12.57,47.84626,-54.09684
2021-01-06 10:39:01+00:00,211.4631,4.0,12.57,47.84626,-54.09684
2021-01-06 10:49:01+00:00,213.0531,4.0,12.57,47.84626,-54.09684
2021-01-06 10:59:01+00:00,216.2531,4.0,12.57,47.84626,-54.09684
2021-01-06 11:09:01+00:00,217.4315,4.0,12.57,47.84626,-54.09684
2021-01-06 11:19:01+00:00,219.3714,4.0,12.57,47.84626,-54.09684
2021-01-06 11:29:01+00:00,222.8898,4.0,12.57,47.84626,-54.09684
2021-01-06 11:39:01+00:00,225.5614,4.0,12.57,47.84626,-54.09684
2021-01-06 11:49:01+00:00,226.7914,4.0,12.57,47.84626,-54.09684
2021-01-06 11:59:01+00:00,227.7131,3.99,12.57,47.84626,-54.09684
2021-01-06 12:09:01+00:00,229.2215,3.99,12.57,47.84626,-54.09684
2021-01-06 12:19:01+00:00,229.8015,3.99,12.57,47.84626,-54.09684
2021-01-06 12:29:01+00:00,231.4931,4.0,12.57,47.84626,-54.09684
2021-01-06 12:39:01+00:00,233.2715,4.0,12.57,47.84626,-54.09684
2021-01-06 12:49:01+00:00,234.0298,4.0,12.57,47.84626,-54.09684
2021-01-06 12:59:01+00:00,234.8647,4.04,12.57,47.84626,-54.09684
2021-01-06 13:09:01+00:00,237.3231,4.07,12.57,47.84626,-54.09684
2021-01-06 13:19:01+00:00,240.9714,4.07,12.57,47.84626,-54.09684
2021-01-06 13:29:01+00:00,243.5481,4.07,12.57,47.84626,-54.09684
2021-01-06 13:39:01+00:00,245.7081,4.08,12.57,47.84626,-54.09684
2021-01-06 13:49:01+00:00,249.6848,4.09,12.57,47.84626,-54.09684
2021-01-06 13:59:01+00:00,255.8948,4.03,12.57,47.84626,-54.09684
2021-01-06 14:09:01+00:00,260.6081,4.01,12.57,47.84626,-54.09684
2021-01-06 14:19:01+00:00,265.8614,4.03,12.65,47.84626,-54.09684
2021-01-06 14:29:01+00:00,272.8997,4.05,12.65,47.84626,-54.09684
2021-01-06 14:39:01+00:00,282.178,4.08,12.65,47.84626,-54.09684
2021-01-06 14:49:01+00:00,289.8914,4.09,12.65,47.84626,-54.09684
2021-01-06 14:59:01+00:00,299.223,4.08,12.65,47.84626,-54.09684
2021-01-06 15:09:01+00:00,308.5797,4.07,12.65,47.84626,-54.09684
2021-01-06 15:19:01+00:00,313.7229,4.09,12.97,47.84626,-54.09684
2021-01-06 15:29:01+00:00,315.8763,4.09,12.97,47.84626,-54.09684
2021-01-06 15:39:01+00:00,321.6796,4.09,12.97,47.84626,-54.09684
2021-01-06 15:49:01+00:00,327.4347,4.1,12.97,47.84626,-54.09684
2021-01-06 15:59:01+00:00,328.3096,4.1,12.97,47.84626,-54.09684
2021-01-06 16:09:01+00:00,328.9147,4.1,12.97,47.84626,-54.09684
2021-01-06 16:19:01+00:00,333.0814,4.1,13.21,47.84626,-54.09684
2021-01-06 16:29:01+00:00,333.4998,4.1,13.21,47.84626,-54.09684
2021-01-06 16:39:01+00:00,333.1879,4.1,13.21,47.84626,-54.09684
2021-01-06 16:49:01+00:00,335.7247,4.1,13.21,47.84626,-54.09684
2021-01-06 16:59:01+00:00,338.6495,4.1,13.21,47.84626,-54.09684
2021-01-06 17:09:01+00:00,338.9031,4.1,13.21,47.84626,-54.09684
2021-01-06 17:19:01+00:00,340.4597,4.1,13.05,47.84626,-54.09684
2021-01-06 17:29:01+00:00,342.7479,4.1,13.05,47.84626,-54.09684
2021-01-06 17:39:01+00:00,342.42800000000005,4.1,13.05,47.84626,-54.09684
2021-01-06 17:49:01+00:00,342.0013,4.1,13.05,47.84626,-54.09684
2021-01-06 17:59:01+00:00,340.6929,4.1,13.05,47.84626,-54.09684
2021-01-06 18:09:01+00:00,341.3045,4.1,13.05,47.84626,-54.09684
2021-01-06 18:19:01+00:00,339.3279,4.1,12.97,47.84626,-54.09684
2021-01-06 18:29:01+00:00,335.4163,4.1,12.97,47.84626,-54.09684
2021-01-06 18:39:01+00:00,331.1796,4.1,12.97,47.84626,-54.09684
2021-01-06 18:49:01+00:00,326.0013,4.1,12.97,47.84626,-54.09684
2021-01-06 18:59:01+00:00,319.433,4.1,12.97,47.84626,-54.09684
2021-01-06 19:09:01+00:00,315.7429,4.15,12.97,47.84626,-54.09684
2021-01-06 19:19:01+00:00,314.0947,4.2,12.81,47.84626,-54.09684
2021-01-06 19:29:01+00:00,307.8197,4.2,12.81,47.84626,-54.09684
2021-01-06 19:39:01+00:00,296.6947,4.2,12.81,47.84626,-54.09684
2021-01-06 19:49:01+00:00,291.7147,4.22,12.81,47.84626,-54.09684
2021-01-06 19:59:01+00:00,288.098,4.25,12.81,47.84626,-54.09684
2021-01-06 20:09:01+00:00,281.433,4.28,12.81,47.84626,-54.09684
2021-01-06 20:19:01+00:00,273.5347,4.28,12.73,47.84626,-54.09684
2021-01-06 20:29:01+00:00,267.693,4.29,12.73,47.84626,-54.09684
2021-01-06 20:39:01+00:00,264.6014,4.28,12.73,47.84626,-54.09684
2021-01-06 20:49:01+00:00,257.8148,4.28,12.73,47.84626,-54.09684
2021-01-06 20:59:01+00:00,249.7247,4.29,12.73,47.84626,-54.09684
2021-01-06 21:09:01+00:00,247.2164,4.29,12.73,47.84626,-54.09684
2021-01-06 21:19:01+00:00,246.1014,4.27,12.65,47.84626,-54.09684
2021-01-06 21:29:01+00:00,241.4347,4.28,12.65,47.84626,-54.09684
2021-01-06 21:39:01+00:00,234.1464,4.27,12.65,47.84626,-54.09684
2021-01-06 21:49:01+00:00,230.7648,4.2,12.65,47.84626,-54.09684
2021-01-06 21:59:01+00:00,227.8781,4.2,12.65,47.84626,-54.09684
2021-01-06 22:09:01+00:00,223.8864,4.2,12.65,47.84626,-54.09684
2021-01-06 22:19:01+00:00,219.0898,4.2,12.57,47.84626,-54.09684
2021-01-06 22:29:01+00:00,219.1447,4.1,12.57,47.84626,-54.09684
2021-01-06 22:39:01+00:00,220.6914,4.14,12.57,47.84626,-54.09684
2021-01-06 22:49:01+00:00,221.6448,4.1,12.57,47.84626,-54.09684
2021-01-06 22:59:01+00:00,220.2664,4.1,12.57,47.84626,-54.09684
2021-01-06 23:09:01+00:00,222.6248,4.1,12.57,47.84626,-54.09684
2021-01-06 23:19:01+00:00,227.6598,4.1,12.57,47.84626,-54.09684
2021-01-06 23:29:01+00:00,227.7414,4.1,12.57,47.84626,-54.09684
2021-01-06 23:39:01+00:00,222.6531,4.1,12.57,47.84626,-54.09684
2021-01-06 23:49:01+00:00,223.8664,4.1,12.57,47.84626,-54.09684
2021-01-06 23:59:01+00:00,227.8981,4.1,12.57,47.84626,-54.09684
